Content
SEND FEEDBACK

Daily
Averages
Monthly
Summary
Iran

GORGAN, IRAN


Home > Middle East > Iran
Elevation: 509 feet     Latitude: 36 49N     Longitude: 054 28E

WEATHER
 
SELECT A DAY
Number of Records: 42,330;   Date Range: 6/2/04 - 7/28/14
 
SHARE

PRINT THIS DATA

[ ← Previous Day ]
WEATHER ALMANAC - FEBRUARY 13, 2013
[ Next Day → ]
[ °C ]   °F
Weather ElementAverageHighLow
Temperature49.4 °F53.6 °F (10:30 am)46 °F (9:30 pm)
Dewpoint46.7 °F50 °F (1:30 pm)44 °F (9:30 pm)
Humidity90.3 %100 % (2:30 pm)72 % (10:30 am)
Barometer30.18 in30.32 in (9:30 pm)29.98 in (1:30 am)
Wind Speed13.2 mph23 mph (7:30 pm)
Wind Gust34.5 mph (7:30 pm)
Weather ElementAverage
Visibility2.2 mi
Wind DirectionSW (223.8 °)

Weather ElementTotal
Precipitation---
Heating Degree Days15.2 (Base 65)
Averaged from 24 records on February 13, 2013
WEATHER CONDITIONS BREAKOUT
WIND DIRECTION BREAKOUT
WEATHER BY HOUR - FEBRUARY 13, 2013
[ °C ]   °F
Local TimeTemperatureDewpointHumidityBarometerVisibilityWind DirectionWind SpeedGust SpeedPrecipitationEventsConditions
1:30 AM48.2 °F46.4 °F93 %29.98 in2.2 miWSW (240°)11.5 mphOvercast
4:30 AM48.2 °F46.4 °F93 %30.06 in1.9 miSSW (210°)11.5 mphOvercast
5:30 AM48.2 °F46.4 °F93 %30.09 in1.6 miSSW (200°)11.5 mphOvercast
6:30 AM48.2 °F46.4 °F93 %30.09 in1.6 miSSW (210°)11.5 mphOvercast
7:30 AM48.2 °F46.4 °F93 %30.12 in0.6 miCalmFogFog
8:30 AM50.0 °F48.2 °F94 %30.12 in0.6 miSE (140°)4.6 mphOvercast
9:30 AM51.8 °F46.4 °F82 %30.15 in0.7 miSouth (170°)4.6 mphOvercast
9:30 AM51.0 °F46.0 °F78 %30.17 in1.0 miSouth (170°)4.5 mphMist
10:30 AM53.6 °F44.6 °F72 %30.15 in1.2 miWest (270°)4.6 mphOvercast
11:30 AM53.6 °F46.4 °F77 %30.18 in1.2 miWest (260°)6.9 mphOvercast
12:30 PM51.8 °F48.2 °F88 %30.15 in1.2 miWest (270°)11.5 mphRainLight Rain
1:30 PM51.8 °F50.0 °F94 %30.15 in1.2 miWNW (290°)11.5 mphRainLight Rain
2:30 PM50.0 °F50.0 °F100 %30.18 in1.9 miWest (260°)13.8 mphLight Drizzle
3:30 PM51.0 °F48.0 °F87 %30.20 in4.0 miWSW (250°)17.9 mphRainLight Rain
3:30 PM51.8 °F48.2 °F88 %30.18 in3.7 miWSW (250°)18.4 mphRainLight Rain
4:30 PM50.0 °F48.2 °F94 %30.21 in3.7 miWest (260°)13.8 mphRainLight Rain
5:30 PM50.0 °F48.2 °F94 %30.24 in3.7 miWSW (240°)16.1 mphRainRain
6:30 PM48.2 °F48.2 °F100 %30.24 in3.1 miWSW (240°)13.8 mphRainRain
7:30 PM48.2 °F46.4 °F93 %30.27 in1.6 miWSW (240°)23.0 mph34.5 mphRainRain
8:30 PM46.4 °F44.6 °F93 %30.27 in1.9 miWSW (240°)23.0 mph34.5 mphRainRain
9:30 PM46.0 °F44.0 °F89 %30.32 in4.0 miWSW (240°)17.9 mphRainLight Rain
9:30 PM46.4 °F44.6 °F93 %30.30 in3.7 miWSW (240°)18.4 mphRainLight Rain
10:30 PM46.4 °F44.6 °F93 %30.30 in3.7 miWSW (240°)23.0 mphRainLight Rain
11:30 PM46.4 °F44.6 °F93 %30.30 in3.7 miWSW (240°)23.0 mphRainLight Rain
Hourly data recorded from OING, located miles away from Gorgan, Iran







STORIES FROM OUR PARTNERS